Weather History for Covington, KY

Change the Weather History Date:

Thursday, January 24, 2013

  Actual Average Record
Temperature  
Mean Temperature 20 °F 31 °F  
Max Temperature 25 °F 39 °F 77 °F (1943)
Min Temperature 15 °F 23 °F -19 °F (1963)
Degree Days  
Heating Degree Days 45 34  
Month to date heating degree days 765 816  
Since 1 July heating degree days 2631 2735  
Cooling Degree Days 0 0  
Month to date cooling degree days 0 0  
Year to date cooling degree days 0 0  
Moisture  
Dew Point 3 °F    
Average Humidity 51    
Maximum Humidity 67    
Minimum Humidity 34    
Precipitation  
Precipitation 0.00 in 0.10 in 2.54 in (1937)
Month to date precipitation 1.98 2.32  
Year to date precipitation 1.98 2.32  
Snow  
Snow 0.00 in 0.20 in 3.00 in (1941)
Month to date snowfall 0.6 4.8  
Since 1 July snowfall 8.2 10.4  
Snow Depth 0.00 in    
Sea Level Pressure  
Sea Level Pressure 30.45 in    
Wind  
Wind Speed 11 mph (NNE)    
Max Wind Speed 25 mph    
Max Gust Speed 31 mph    
Visibility 10 miles    
Events      
T = Trace of Precipitation, MM = Missing Value Source: NWS Daily Summary

Daily Weather History Graph

Daily Weather History Graph

Search for Another Location

Airport:

Trip Planner

Search our weather history database for the weather conditions in past years. The results will help you decide how hot, cold, wet, or windy it might be!

Date:

Astronomy

Jan. 24, 2013 Rise Set
Actual Time 7:51 AM EST 5:50 PM EST
Civil Twilight 7:22 AM EST 6:19 PM EST
Nautical Twilight 6:50 AM EST 6:51 PM EST
Astronomical Twilight 6:18 AM EST 7:23 PM EST
Moon 3:52 PM EST 5:48 AM EST
Length of Visible Light 10h 56m
Length of Day
9h 59m
Waxing Gibbous, 94% of the Moon is Illuminated
Jan 24
Waxing Gibbous
Jan 26
Full
Feb 3
Last Quarter
Feb 10
New
Feb 17
First Quarter

Hourly Weather History & Observations

Time (EST) Temp. Windchill Dew Point Humidity Pressure Visibility Wind Dir Wind Speed Gust Speed Precip Events Conditions
12:52 AM 23.0 °F 11.7 °F 12.0 °F 63% 30.13 in 10.0 mi West 11.5 mph - N/A   Mostly Cloudy
1:52 AM 21.9 °F 6.5 °F 10.9 °F 63% 30.19 in 10.0 mi NW 20.7 mph 26.5 mph N/A   Mostly Cloudy
2:52 AM 21.0 °F 6.2 °F 6.1 °F 53% 30.25 in 10.0 mi NNW 18.4 mph 27.6 mph N/A   Scattered Clouds
3:52 AM 19.0 °F 6.8 °F 5.0 °F 54% 30.30 in 10.0 mi NNW 11.5 mph 26.5 mph N/A   Partly Cloudy
4:52 AM 18.0 °F 1.3 °F 8.1 °F 65% 30.35 in 10.0 mi NNW 20.7 mph 27.6 mph N/A   Mostly Cloudy
5:52 AM 17.1 °F 1.5 °F 3.9 °F 56% 30.38 in 10.0 mi North 17.3 mph 23.0 mph N/A   Clear
6:52 AM 16.0 °F 2.3 °F 3.9 °F 59% 30.43 in 10.0 mi NNW 12.7 mph - N/A   Partly Cloudy
7:52 AM 15.1 °F 2.5 °F 5.0 °F 64% 30.48 in 10.0 mi North 10.4 mph - N/A   Mostly Cloudy
8:52 AM 16.0 °F 4.4 °F 5.0 °F 62% 30.50 in 10.0 mi North 9.2 mph - N/A   Mostly Cloudy
9:52 AM 18.0 °F 7.7 °F 3.0 °F 52% 30.55 in 10.0 mi North 8.1 mph - N/A   Mostly Cloudy
10:52 AM 19.9 °F 6.7 °F 1.0 °F 44% 30.59 in 10.0 mi NNE 13.8 mph 19.6 mph N/A   Scattered Clouds
11:52 AM 21.0 °F 10.6 °F -0.0 °F 40% 30.60 in 10.0 mi NNE 9.2 mph - N/A   Mostly Cloudy
12:52 PM 23.0 °F 13.1 °F -0.9 °F 35% 30.57 in 10.0 mi North 9.2 mph - N/A   Mostly Cloudy
1:52 PM 23.0 °F 11.7 °F -2.9 °F 32% 30.54 in 10.0 mi NNE 11.5 mph - N/A   Mostly Cloudy
2:52 PM 23.0 °F 13.9 °F -2.0 °F 34% 30.53 in 10.0 mi East 8.1 mph - N/A   Overcast
3:52 PM 23.0 °F 17.0 °F -2.0 °F 34% 30.54 in 10.0 mi SE 4.6 mph - N/A   Mostly Cloudy
4:52 PM 23.0 °F 15.8 °F -2.9 °F 32% 30.53 in 10.0 mi ENE 5.8 mph - N/A   Overcast
5:52 PM 21.0 °F 13.4 °F -0.9 °F 38% 30.53 in 10.0 mi East 5.8 mph - N/A   Overcast
6:52 PM 19.9 °F 12.1 °F -0.0 °F 42% 30.55 in 10.0 mi East 5.8 mph - N/A   Mostly Cloudy
7:52 PM 19.9 °F 9.3 °F -0.0 °F 42% 30.52 in 10.0 mi East 9.2 mph - N/A   Overcast
8:52 PM 19.9 °F 8.6 °F 1.9 °F 46% 30.50 in 10.0 mi East 10.4 mph - N/A   Overcast
9:52 PM 19.9 °F 7.9 °F 5.0 °F 52% 30.49 in 10.0 mi East 11.5 mph - N/A   Overcast
10:52 PM 19.9 °F 7.9 °F 5.0 °F 52% 30.48 in 10.0 mi East 11.5 mph - N/A   Overcast
11:52 PM 19.9 °F 9.3 °F 5.0 °F 52% 30.45 in 10.0 mi ESE 9.2 mph - N/A   Overcast